Regional Weather Roundup
Issued by NWS Wakefield, VA

Home | Current Version | Previous Version | Graphics & Text | Print | Product List | Glossary On
Versions: 1 2 3 4 5 6 7 8 9 10 11 12 13 14 15 16 17 18 19 20 21 22 23 24 25 26 27
000
ASUS41 KAKQ 261115
RWRAKQ

REGIONAL WEATHER ROUNDUP
NATIONAL WEATHER SERVICE WAKEFIELD VA
700 AM EDT SUN MAR 26 2017

Note: "fair" indicates few or no clouds below 12,000 feet with no
significant weather and/or obstructions to visibility. * = Denotes
station may not report precipitation (e.g., rain,snow,etc.),
thunder or fog.

VAZ042-051-052>054-056-261200-
NORTHERN VIRGINIA

CITY           SKY/WX    TMP DP  RH WIND       PRES   REMARKS
WASH NATIONAL  CLOUDY    49  44  83 E10       30.29R
DULLES         CLOUDY    48  41  76 E12       30.28R
FORT BELVOIR   CLOUDY    49  43  80 VRB6      30.29R
QUANTICO       CLOUDY    50  46  86 E10       30.29R
FREDERICKSBRG* MOCLDY    49  46  88 NE9       30.27R
STAFFORD*      CLOUDY    48  45  88 E7        30.31R
WARRENTON      MOCLDY    49  40  72 NE5       30.27R
CULPEPER*      MOCLDY    49  44  81 NE3       30.28R
MANASSAS*      CLOUDY    49  42  77 E8        30.28R
LEESBURG*      CLOUDY    48  45  87 E6        30.30R
WINCHESTER     CLOUDY    46  41  81 E5        30.26R
FRONT ROYAL*   SUNNY     46  43  87 E12G17    30.23R
LURAY*         SUNNY     52  48  87 NE9       30.20R
$$

VAZ048-049-060>072-079>083-261200-
CENTRAL AND SOUTH CENTRAL VIRGINIA

CITY           SKY/WX    TMP DP  RH WIND       PRES   REMARKS
RICHMOND       MOCLDY    56  51  84 CALM      30.23R
CHESTERFIELD*  CLOUDY   N/A N/A N/A CALM      30.24R
PETERSBURG*    CLOUDY    52  50  92 CALM      30.23R
HANOVER        CLOUDY    54  48  80 VRB5      30.25R
TAPPAHANNOCK*  PTCLDY    49  45  87 NE6       30.27R
QUINTON*       CLOUDY    50  50 100 MISG      30.23R
CHARLOTTSVILLE CLOUDY    55  48  77 NE16      30.22R
GORDONSVILLE*  CLOUDY    53  49  87 NE10      30.23R
ORANGE*        CLOUDY    50  45  81 N6        30.26R
LOUISA*        CLOUDY    57  54  88 E3        30.22R
BUMPASS*       CLOUDY    52  50  92 NE8       30.24R
FARMVILLE*     CLOUDY    53  52  95 CALM      30.20R
CREWE*         CLOUDY    52  52 100 CALM      30.21S
FORT PICKETT*  CLOUDY   N/A N/A N/A S3        30.22R
CHASE CITY*    PTSUNNY   53  51  94 CALM      30.22R
CLARKSVILLE*   FAIR      54  54 100 CALM      30.22R
SOUTH HILL*    MOCLDY    52  51  97 S3        30.29R
LAWRENCEVILLE* CLOUDY    54  51  91 S3        30.23R
EMPORIA*       PTCLDY    48  48 100 CALM      30.25R
$$

VAZ088>098-261200-
SOUTHEAST VIRGINIA

CITY           SKY/WX    TMP DP  RH WIND       PRES   REMARKS
NORFOLK        MOCLDY    57  53  86 SW7       30.24R
VIRGINIA BEACH CLOUDY    54  51  90 CALM      30.25R
NORFOLK NAVAL  CLOUDY    59  53  80 S5        30.26R
WEST POINT*    MOCLDY    53  49  87 NE3       30.26R
SALUDA*        PTSUNNY   49  48  96 CALM      30.26R
NEWPORT NEWS   MOCLDY    57  52  83 S5        30.24R
LANGLEY AFB    MOCLDY    58  54  87 S6        30.24R
FORT EUSTIS    MOCLDY    56  52  85 SE3       30.22R
WILLIAMSBURG*  PTCLDY    55  54  94 CALM      30.25R
HR EXEC AP*    FAIR      50  46  87 CALM      30.23S
FRANKLIN*      CLOUDY    55  52  90 S5        30.25R
US460-WAKEFLD  MOCLDY    56  53  90 CALM      30.24R
$$

VAZ020-022-025-037-045-261200-
WEST CENTRAL AND SOUTHWEST VIRGINIA

CITY           SKY/WX    TMP DP  RH WIND       PRES   REMARKS
STAUNTON*      MOCLDY    42  40  95 CALM      30.20S
WAYNESBORO*    SUNNY     52  48  86 CALM      30.19R
HOT SPRINGS VA CLOUDY    48  43  81 CALM      30.21R
LYNCHBURG      CLOUDY    54  49  83 S3        30.21R
DANVILLE       PTCLDY    50  50 100 CALM      30.20R
SOUTH BOSTON*  FAIR      52  51  95 CALM      30.21R
MARTINSVILLE   CLOUDY    47  46  93 CALM      30.22R
ROANOKE        MOCLDY    56  49  77 E8        30.19R
BLACKSBURG     CLOUDY    55  50  84 S6        30.21R
DUBLIN*        CLOUDY    53  49  87 E6        30.18R
MARION*        CLOUDY    58  49  73 CALM      30.18R
HILLSVILLE*    CLOUDY    53  51  93 CALM      30.17R
RICHLANDS*     FAIR      56  47  70 CALM      30.10S
WISE*          CLOUDY    59  45  58 CALM      30.10R
ABINGDON*      CLOUDY    59  47  66 CALM      30.10R
$$

MDZ021>025-VAZ099-100-261200-
SOUTHERN MARYLAND AND THE DELMARVA PENINSULA

CITY           SKY/WX    TMP DP  RH WIND       PRES   REMARKS
PATUXENT RIVER CLOUDY    47  47 100 E12       30.28R
BAY BRIDGE APT CLOUDY    46  41  81 E13G18    30.32R
LEONARDTOWN    CLOUDY    46  43  87 E9        30.30R
DOVER          CLOUDY    45  45 100 E15       30.33R
GEORGETOWN     CLOUDY    44  41  89 E14       30.33R
EASTON         CLOUDY    46  41  81 E16       30.34R
CAMBRIDGE      CLOUDY    45  43  93 E8G14     30.30R
SALISBURY      CLOUDY    45  44  97 NE14      30.30R FOG
OCEAN CITY     CLOUDY    44  42  93 NE12G20   30.31R FOG
WALLOPS ISLAND FOG       47  47 100 NE16G24   30.30R VSB 3/4
ACCOMACK*      MOCLDY    49  47  93 E8        30.27R
$$

NCZ012>017-030>032-261200-
NORTH CENTRAL AND EASTERN NORTH CAROLINA

CITY           SKY/WX    TMP DP  RH WIND       PRES   REMARKS
ROANOKE RAPIDS FAIR      52  52 100 CALM      30.24R
RALEIGH        CLOUDY    53  50  89 CALM      30.22R
ELIZABETH CITY CLOUDY    51  49  92 SE6       30.26R
AHOSKIE*         N/A     49  49  98 CALM      30.25R FOG
EDENTON*       CLOUDY    53  51  92 CALM      30.26S
CURRITUCK*     CLOUDY    53  53 100 CALM      30.27R
KILL DEVIL HLS NOT AVBL
MANTEO         CLOUDY    54  53  97 CALM      30.27R
CAPE HATTERAS  CLOUDY    64  54  69 S5        30.26R
TARBORO*       NOT AVBL
GOLDSBORO      CLEAR     53  53 100 E5        30.22R
WASHINGTON     PTCLDY    49  49  97 CALM      30.25S
GREENVILLE     PTCLDY    52  52 100 CALM      30.25R
NEW BERN       FOG       49  49 100 CALM      30.26R VSB 1/2
WILMINGTON     CLEAR     51  51 100 CALM      30.22R
$$

VAZ048-261200-
ELSEWHERE

CITY           SKY/WX    TMP DP  RH WIND       PRES   REMARKS
HARRISBURG PA  CLOUDY    45  40  82 E9        30.33S
BALTIMORE      CLOUDY    46  40  79 E15       30.31R
ANNAPOLIS      CLOUDY    48  43  82 E13       30.31R
ANDREWS AFB    CLOUDY    46  43  87 E12       30.28R
PHILADELPHIA   CLOUDY    43  37  79 E14       30.38R
HENDERSON NC   CLOUDY    49  47  93 SE5       30.22S
GREENSBORO     CLOUDY    54  52  93 S6        30.19R
ROCKY MOUNT    CLOUDY    49  49 100 CALM      30.24R
$$

VAZ100-261200-
MARINE

STATION/POSITION TIME  TEMP    WIND        PRES    WAVE   SWELL
                       AIR SEA DIR/SP/G            HT/PER HT/PER
                 (UTC) (F)     (DEG/KT/KT) (MB)    (FT/S) (FT/S)
CAPE MAY NJ      1048   43 45   70/ 12/ 22 1026.3R
LEWES DE         1042      47   80/ 18/ 22 1026.8R
OCEAN-CITY-INLET 1042   44 44   70/  5/ 12 1026.7R
WACHAPREAGUE VA  1048   48 52   40/ 14/ 18 1024.7R
THOMAS POINT MD  1100   46 45   80/ 14/ 18   N/A
GOOSES REEF MD   1100   46 46  110/ 14/ 17 1026.4    1/ 3
COVE POINT MD    1048   47     110/  9/ 12 1026.3R
SOLOMONS ISLAND  1042   47 47   80/ 11/ 13   N/A
BISHOPS HEAD MD  1048   48 50   70/ 13/ 16 1025.8R
PINEY POINT MD   1048           90/  8/ 10   N/A
POTOMAC MD       1100   47 47   60/ 12/ 14 1024.6    1
CAMBRIDGE MD     1048   45 48   70/ 16/ 22 1025.3R
LEWISETTA VA     1048   48 50   80/  9/ 13 1025.0R
RAPPAHANNOCK LGT 1048          120/ 10/ 10 1025.1R
STINGRAY PT      1050   49      20/  6/  6 1024.2R
YORK RVR RNG VA  1048   54      60/  5/  8 1023.5R
YORKTOWN VA      1048   59 49  210/  4/  6 1023.5R
JAMESTOWN VA     1100   57 53   90/  4/  4   N/A     0
DOMINION TERM VA 1048   56     160/  4/  5 1024.2R
KIPTOPEKE VA     1048      49   80/ 10/ 12   N/A
CHES BAY BRIDGE  1048   60 48  210/ 10/ 11 1024.1R
CAPE HENRY VA    1048   59     200/  5/  8   N/A
WILLOUBY STN VA  1048   60     200/ 10/ 11 1025.0R
S CRANEY ISL VA  1048   55     170/  5/  5 1024.0R
CAPE HENRY BUOY  1042      49                N/A     2/ 6
CAPE CHARLES BUO 1051      47                N/A     2/ 7
OFFSHORE WE BUOY 1051      49                N/A     2/ 6
64NM E OF VA BCH 1050   53 49  260/  4/  6 1024.7R   2/ 8   2/ 8
DUCK PIER NC     1048   58 46  250/  5/  6 1024.1R
44100 DUCK FRF   1035      49                N/A     2/ 5
44056 DUCK FRF   1030      49                N/A     2/ 6
OREGON INLET NC  1042   57 58  160/  4/  5 1024.8R
HATTERAS NC      1048   63 58  240/  3/  5 1024.3R
DIAMOND SHLS NC  1050   68 75  180/ 14/ 17 1024.4R   3/ 8   2/ 8
CAPE LOOKOUT NC  1100   67     100/  2/  2 1024.2R
$$




USA.gov is the U.S. government's official web portal to all federal, state and local government web resources and services.